Fargo, ND

11:46 AM CST on December 05, 2019 (GMT -0600)
Hector International

Weather History for KFAR - October, 2019

Change the Weather History Date:

Saturday, October 26, 2019

  Actual Average Record
Temperature  
Mean Temperature 48 °F -  
Max Temperature 57 °F 51 °F 79 °F (1989)
Min Temperature 38 °F 31 °F -4 °F (1919)
Degree Days  
Heating Degree Days 17 24  
Month to date heating degree days 540 478  
Since 1 July heating degree days 755 748  
Cooling Degree Days 0 0  
Month to date cooling degree days 0 0  
Year to date cooling degree days 527 548  
Moisture  
Dew Point 35 °F    
Average Humidity 68    
Maximum Humidity 82    
Minimum Humidity 54    
Precipitation  
Precipitation 0.00 in 0.06 in 1.21 in (2010)
Month to date precipitation 3.78 1.91  
Year to date precipitation 28.48 20.51  
Snow  
Snow 0.00 in 0.00 in 1.40 in (2008)
Month to date snowfall 4.5 0.4  
Since 1 July snowfall 4.5 0.4  
Since 1 September snowfall 4.5 0.4  
Snow Depth 0.00 in    
Sea Level Pressure  
Sea Level Pressure 29.71 in    
Wind  
Wind Speed 14 mph ()    
Max Wind Speed 24 mph    
Max Gust Speed 32 mph    
Visibility 10.0 miles    
Events      
T = Trace of Precipitation, MM = Missing Value Source: Averaged Metar Reports

Daily Weather History Graph

Daily Weather History Graph

Search for Another Location

Airport or City:

Astronomy

Oct. 26, 2019 Rise Set
Actual Time 8:00 AM CDT 6:20 PM CDT
Civil Twilight 7:29 AM CDT 6:52 PM CDT
Nautical Twilight 6:53 AM CDT 7:27 PM CDT
Astronomical Twilight 6:18 AM CDT 8:02 PM CDT
Moon 5:45 AM CDT (10/26) 6:06 PM CDT (10/26)
Length of Visible Light 11h 22m
Length of Day
10h 20m
Waning Crescent, 3% of the Moon is Illuminated
Oct 26
Waning Crescent
Oct 27
New
Nov 4
First Quarter
Nov 12
Full
Nov 19
Last Quarter

Hourly Weather History & Observations

Time (CDT) Temp. Windchill Dew Point Humidity Pressure Visibility Wind Dir Wind Speed Gust Speed Precip Events Conditions
12:53 AM 48.0 °F - 35.1 °F 61% 29.75 in 10.0 mi South 16.1 mph - N/A   Clear
1:53 AM 45.0 °F 38.2 °F 34.0 °F 65% 29.72 in 10.0 mi SSE 15.0 mph 23.0 mph N/A   Clear
2:53 AM 45.0 °F 37.9 °F 33.1 °F 63% 29.69 in 10.0 mi SSE 16.1 mph 25.3 mph N/A   Clear
3:53 AM 44.1 °F 37.4 °F 33.1 °F 65% 29.66 in 10.0 mi SSE 13.8 mph 25.3 mph N/A   Clear
4:53 AM 42.1 °F 33.3 °F 33.1 °F 70% 29.64 in 10.0 mi SSE 19.6 mph 28.8 mph N/A   Clear
5:53 AM 42.1 °F 33.1 °F 33.1 °F 70% 29.62 in 10.0 mi SSE 20.7 mph 31.1 mph N/A   Clear
6:53 AM 41.0 °F 32.8 °F 33.1 °F 73% 29.62 in 10.0 mi SSE 16.1 mph 26.5 mph N/A   Clear
7:53 AM 41.0 °F 31.9 °F 33.1 °F 73% 29.61 in 10.0 mi SSE 19.6 mph 26.5 mph N/A   Clear
8:53 AM 42.1 °F 35.2 °F 33.1 °F 70% 29.61 in 10.0 mi SSE 12.7 mph 26.5 mph N/A   Clear
9:53 AM 44.1 °F 37.7 °F 34.0 °F 68% 29.64 in 10.0 mi South 12.7 mph - N/A   Clear
10:53 AM 46.9 °F - 34.0 °F 61% 29.63 in 10.0 mi South 15.0 mph - N/A   Clear
11:53 AM 50.0 °F - 36.0 °F 59% 29.65 in 10.0 mi SSW 11.5 mph - N/A   Clear
12:53 PM 53.1 °F - 37.0 °F 55% 29.64 in 10.0 mi SSW 6.9 mph - N/A   Clear
1:53 PM 55.0 °F - 39.0 °F 55% 29.63 in 10.0 mi WNW 4.6 mph - N/A   Clear
2:53 PM 57.0 °F - 41.0 °F 55% 29.65 in 10.0 mi NNW 9.2 mph - N/A   Clear
3:53 PM 53.1 °F - 39.0 °F 59% 29.66 in 10.0 mi NW 18.4 mph - N/A   Scattered Clouds
4:53 PM 48.9 °F - 37.9 °F 66% 29.70 in 10.0 mi NW 17.3 mph - N/A   Scattered Clouds
5:53 PM 48.0 °F - 37.9 °F 68% 29.74 in 10.0 mi NW 19.6 mph 25.3 mph N/A   Overcast
6:53 PM 45.0 °F 37.6 °F 35.1 °F 68% 29.77 in 10.0 mi NNW 17.3 mph 28.8 mph N/A   Overcast
7:53 PM 44.1 °F 36.2 °F 33.1 °F 65% 29.80 in 10.0 mi NNW 18.4 mph 24.2 mph N/A   Overcast
8:53 PM 43.0 °F 34.5 °F 33.1 °F 68% 29.81 in 10.0 mi NNW 19.6 mph 31.1 mph N/A   Overcast
9:53 PM 39.9 °F 30.5 °F 34.0 °F 79% 29.83 in 10.0 mi NW 19.6 mph 32.2 mph N/A   Overcast
10:16 PM 39.0 °F 29.0 °F 34.0 °F 82% 29.81 in 10.0 mi NW 20.7 mph 27.6 mph N/A   Overcast
10:40 PM 39.0 °F 29.6 °F 34.0 °F 82% 29.81 in 10.0 mi NNW 18.4 mph - N/A   Overcast
10:53 PM 39.0 °F 30.6 °F 34.0 °F 82% 29.84 in 10.0 mi NNW 15.0 mph 25.3 mph N/A   Overcast
11:38 PM 39.0 °F 30.3 °F 34.0 °F 82% 29.82 in 10.0 mi NNW 16.1 mph - N/A   Overcast
11:53 PM 39.0 °F 31.4 °F 34.0 °F 82% 29.83 in 10.0 mi NNW 12.7 mph - N/A   Overcast